KC7MRQ Weather Reports


Display with metric or nautical units.
time (UTC)temp
F
wind
direction
speed
MPH
gust
MPH
rain 1hr
in
rain 24hr
in
rain mn
in
humidity
%
barometer
mb
20260510093047 42 345 14.0 19.0 0.00 0.00 0.00 62 1017.5
20260510091541 42 345 17.0 22.0 0.00 0.00 0.00 61 1017.4
20260510090040 42 345 14.0 18.0 0.00 0.00 0.00 62 1017.3
20260510084548 42 345 3.0 6.0 0.00 0.00 0.00 62 1017.4
20260510083039 43 345 10.0 18.0 0.00 0.00 0.00 61 1017.4
20260510081537 43 345 16.0 20.0 0.00 0.00 0.00 60 1017.3
20260510080034 43 345 15.0 19.0 0.00 0.00 0.00 61 1017.5
20260510074536 44 345 15.0 18.0 0.00 0.00 0.00 60 1017.6
20260510073045 44 345 15.0 19.0 0.00 0.00 0.00 59 1017.5
20260510071531 44 345 15.0 20.0 0.00 0.00 0.00 60 1017.5
20260510070034 44 345 16.0 21.0 0.00 0.00 0.00 60 1017.6
20260510064527 44 345 16.0 21.0 0.00 0.00 0.00 59 1017.5
20260510063025 44 345 13.0 18.0 0.00 0.00 0.00 59 1017.4
20260510061523 45 345 12.0 15.0 0.00 0.00 0.00 57 1017.3
20260510060033 46 345 12.0 15.0 0.00 0.00 0.00 56 1017.2
20260510054519 46 345 11.0 17.0 0.00 0.00 0.00 55 1017.2
20260510053017 47 345 12.0 15.0 0.00 0.00 0.00 53 1017.1
20260510051517 47 345 11.0 13.0 0.00 0.00 0.00 53 1017.0
20260510050016 48 345 12.0 15.0 0.00 0.00 0.00 52 1017.0
20260510044514 47 345 11.0 14.0 0.00 0.00 0.00 52 1016.8
20260510043014 48 345 7.0 13.0 0.00 0.00 0.00 51 1016.9
20260510041512 48 345 8.0 10.0 0.00 0.00 0.00 50 1016.7
20260510040012 50 345 6.0 10.0 0.00 0.00 0.00 47 1016.6
20260510034510 51 345 9.0 11.0 0.00 0.00 0.00 44 1016.3
20260510033007 49 345 9.0 12.0 0.00 0.00 0.00 48 1016.1
20260510031506 51 237 10.0 13.0 0.00 0.00 0.00 44 1015.9
20260510030005 51 229 8.0 11.0 0.00 0.00 0.00 45 1015.5
20260510024504 53 345 8.0 10.0 0.00 0.00 0.00 42 1015.4
20260510023001 55 345 6.0 8.0 0.00 0.00 0.00 40 1015.1
20260510021601 56 219 5.0 10.0 0.00 0.00 0.00 37 1014.8
20260510020100 58 233 5.0 9.0 0.00 0.00 0.00 35 1014.7
20260510014601 60 229 5.0 11.0 0.00 0.00 0.00 33 1014.6
20260510013111 60 249 7.0 10.0 0.00 0.00 0.00 31 1014.6
20260510011558 60 214 9.0 17.0 0.00 0.00 0.00 31 1014.5
20260510010057 60 248 11.0 14.0 0.00 0.00 0.00 31 1014.5
20260510004600 60 210 7.0 10.0 0.00 0.00 0.00 33 1014.4
20260510003056 60 178 6.0 10.0 0.00 0.00 0.00 32 1014.4
20260510001556 61 200 12.0 19.0 0.00 0.00 0.00 30 1014.3
20260510000056 62 191 10.0 15.0 0.00 0.00 0.00 30 1014.1
20260509234555 63 258 9.0 15.0 0.00 0.00 0.00 28 1014.0
20260509233058 62 291 9.0 18.0 0.00 0.00 0.00 28 1014.1
20260509231559 63 257 11.0 18.0 0.00 0.00 0.00 27 1014.1
20260509230052 63 115 9.0 15.0 0.00 0.00 0.00 28 1013.8
20260509224552 62 276 13.0 17.0 0.00 0.00 0.00 27 1014.0
20260509223051 62 315 12.0 19.0 0.00 0.00 0.00 25 1014.0
20260509221550 62 345 2.0 14.0 0.00 0.00 0.00 28 1014.0
20260509220054 62 219 15.0 20.0 0.00 0.00 0.00 27 1014.1
20260509214551 63 221 16.0 25.0 0.00 0.00 0.00 27 1014.1
20260509213049 61 166 8.0 18.0 0.00 0.00 0.00 28 1014.1
20260509211548 62 258 13.0 20.0 0.00 0.00 0.00 29 1014.1
20260509210052 61 277 10.0 21.0 0.00 0.00 0.00 30 1014.1
20260509204541 60 221 6.0 12.0 0.00 0.00 0.00 31 1014.3
20260509203040 58 227 6.0 17.0 0.00 0.00 0.00 32 1014.4
20260509201539 59 223 12.0 18.0 0.00 0.00 0.00 30 1014.4
20260509200136 58 355 7.0 13.0 0.00 0.00 0.00 32 1014.4
20260509194537 57 217 4.0 18.0 0.00 0.00 0.00 31 1014.5
20260509193034 57 213 8.0 17.0 0.00 0.00 0.00 32 1014.6
20260509191534 57 150 4.0 14.0 0.00 0.00 0.00 31 1014.7
20260509190032 56 229 11.0 16.0 0.00 0.00 0.00 32 1014.7
20260509184538 55 173 8.0 11.0 0.00 0.00 0.00 33 1014.8
20260509183028 54 180 6.0 17.0 0.00 0.00 0.00 36 1014.8
20260509181527 53 212 12.0 17.0 0.00 0.00 0.00 36 1014.9
20260509180026 53 221 14.0 20.0 0.00 0.00 0.00 36 1014.9
20260509174533 53 244 10.0 18.0 0.00 0.00 0.00 37 1014.8
20260509173027 52 200 11.0 15.0 0.00 0.00 0.00 38 1014.7
20260509171522 52 235 9.0 22.0 0.00 0.00 0.00 37 1014.6
20260509170021 54 225 14.0 21.0 0.00 0.00 0.00 34 1014.3
20260509164519 53 229 12.0 20.0 0.00 0.00 0.00 36 1014.1
20260509163023 53 223 15.0 23.0 0.00 0.00 0.00 37 1014.0
20260509161515 53 202 14.0 19.0 0.00 0.00 0.00 36 1013.9
20260509160013 52 202 12.0 23.0 0.00 0.00 0.00 38 1013.8
20260509154510 52 237 15.0 23.0 0.00 0.00 0.00 39 1013.9
20260509153008 51 219 18.0 25.0 0.00 0.00 0.00 38 1013.7
20260509151505 50 345 15.0 23.0 0.00 0.00 0.00 42 1013.5
20260509150002 49 345 17.0 25.0 0.00 0.00 0.00 43 1013.5
20260509144604 49 345 15.0 23.0 0.00 0.00 0.00 45 1013.6
20260509143059 47 203 11.0 16.0 0.00 0.00 0.00 46 1013.5
20260509141607 46 238 12.0 16.0 0.00 0.00 0.00 47 1013.5
20260509140103 45 236 9.0 13.0 0.00 0.00 0.00 48 1013.6
20260509134557 46 206 3.0 8.0 0.00 0.00 0.00 48 1013.5
20260509133057 45 345 1.0 4.0 0.00 0.00 0.00 50 1013.6
20260509131555 42 345 3.0 5.0 0.00 0.00 0.00 59 1013.6
20260509130053 41 345 3.0 6.0 0.00 0.00 0.00 57 1013.5
20260509124557 40 345 3.0 5.0 0.00 0.00 0.00 57 1013.4
20260509123054 42 345 2.0 3.0 0.00 0.00 0.00 52 1013.3
20260509121544 43 345 1.0 3.0 0.00 0.00 0.00 50 1013.2
20260509120040 44 345 5.0 11.0 0.00 0.00 0.00 48 1013.0
20260509114540 45 345 9.0 15.0 0.00 0.00 0.00 47 1012.8
20260509113042 45 345 3.0 10.0 0.00 0.00 0.00 48 1012.7
20260509111544 45 345 4.0 6.0 0.00 0.00 0.00 49 1012.6
20260509110032 45 345 4.0 8.0 0.00 0.00 0.00 48 1012.6
20260509104534 45 345 2.0 10.0 0.00 0.00 0.00 47 1012.6
20260509103030 45 345 4.0 12.0 0.00 0.00 0.00 46 1012.6
20260509101531 45 345 5.0 8.0 0.00 0.00 0.00 46 1012.4
20260509100029 45 345 7.0 13.0 0.00 0.00 0.00 45 1012.3
20260509094528 46 345 3.0 13.0 0.00 0.00 0.00 44 1012.3